Location: Hobi?a Gr?di?te
(45.4833°N, 22.7833°E)
Time: 11:58:18
(UTC+00:00)

NOSS 3-4 (A) - Pass Details

Date: 28 January 2023
Orbit: 835 x 1377 km, 63.4° (Epoch: 19 March)

Event Time Altitude Azimuth Distance (km) Brightness Sun altitude
Rises 15:47:30 0° 322° (NW) 3,756 6.8 -3.8°
Reaches altitude 10° 15:50:00 10° 325° (NW) 2,875 6.1 -4.2°
Maximum altitude 15:56:52 67° 48° (NE) 1,251 3.9 -5.3°
Drops below altitude 10° 16:04:40 10° 131° (SE) 3,254 5.9 -6.6°
Sets 16:07:39 0° 134° (SE) 4,282 6.6 -7.1°
